DW7322 Weather Reports


Display with metric or nautical units.
time (UTC)temp
F
wind
direction
speed
MPH
gust
MPH
rain 1hr
in
rain 24hr
in
rain mn
in
humidity
%
barometer
mb
20260905114537 74 332 0.0 0.0 0.00 0.00 0.00 95 1012.3
20260905113055 74 333 0.0 0.0 0.00 0.00 0.00 95 1012.0
20260905111510 73 275 0.0 0.0 0.00 0.00 0.00 95 1011.9
20260905110016 73 276 0.0 0.0 0.00 0.00 0.00 95 1011.5
20260905104532 73 274 0.0 0.0 0.00 0.00 0.00 95 1011.5
20260905103046 74 276 0.0 0.0 0.00 0.00 0.00 95 1011.7
20260905101510 74 276 0.0 0.0 0.00 0.00 0.00 95 1011.8
20260905100129 74 274 0.0 0.0 0.00 0.00 0.00 95 1011.7
20260905094528 74 276 0.0 0.0 0.00 0.00 0.00 94 1011.8
20260905093054 75 276 0.0 0.0 0.00 0.00 0.00 94 1011.7
20260905091509 75 274 0.0 0.0 0.00 0.00 0.00 94 1011.7
20260905090040 75 276 0.0 0.0 0.00 0.00 0.00 94 1011.7
20260905084532 75 274 0.0 0.0 0.00 0.00 0.00 94 1011.7
20260905083047 75 274 0.0 1.0 0.00 0.00 0.00 94 1011.8
20260905081510 75 275 0.0 0.0 0.00 0.00 0.00 94 1011.8
20260905080123 75 274 0.0 0.0 0.00 0.00 0.00 94 1011.7
20260905074519 75 276 0.0 0.0 0.00 0.00 0.00 94 1011.7
20260905073041 75 275 0.0 0.0 0.00 0.00 0.00 94 1011.8
20260905071511 75 274 0.0 0.0 0.00 0.00 0.00 94 1011.9
20260905070021 75 276 0.0 0.0 0.00 0.00 0.00 93 1012.0
20260905064539 76 275 0.0 0.0 0.00 0.00 0.00 93 1011.9
20260905063058 76 274 0.0 1.0 0.00 0.00 0.00 93 1012.1
20260905061522 76 241 0.0 0.0 0.00 0.00 0.00 93 1012.2
20260905060024 76 241 0.0 0.0 0.00 0.00 0.00 93 1012.2
20260905054549 77 241 0.0 0.0 0.00 0.00 0.00 93 1012.2
20260905053013 76 241 0.0 0.0 0.00 0.00 0.00 94 1012.0
20260905051545 77 241 0.0 0.0 0.00 0.00 0.00 94 1011.9
20260905044547 77 241 0.0 0.0 0.00 0.00 0.00 93 1011.9
20260905043018 77 241 0.0 0.0 0.00 0.00 0.00 93 1012.0
20260905041538 78 241 0.0 0.0 0.00 0.00 0.00 93 1012.0
20260905040104 78 241 0.0 0.0 0.00 0.00 0.00 92 1012.1
20260905034508 79 241 0.0 0.0 0.00 0.00 0.00 91 1012.3
20260905033029 79 241 0.0 0.0 0.00 0.00 0.00 91 1012.4
20260905031545 79 241 0.0 0.0 0.00 0.00 0.00 92 1012.6
20260905030119 79 241 0.0 0.0 0.00 0.00 0.00 92 1012.6
20260905024513 79 241 0.0 0.0 0.00 0.00 0.00 91 1012.7
20260905023029 79 241 0.0 0.0 0.00 0.00 0.00 92 1012.6
20260905021553 79 241 0.0 0.0 0.00 0.00 0.00 91 1012.6
20260905020112 80 241 0.0 0.0 0.00 0.00 0.00 91 1012.2
20260905014505 80 241 0.0 0.0 0.00 0.00 0.00 90 1012.1
20260905013028 80 241 0.0 0.0 0.00 0.00 0.00 90 1011.8
20260905011542 81 241 0.0 0.0 0.00 0.00 0.00 89 1011.5
20260905010104 81 241 0.0 0.0 0.00 0.00 0.00 88 1011.4
20260905004556 82 241 0.0 0.0 0.00 0.00 0.00 88 1011.1
20260905003028 82 241 0.0 0.0 0.00 0.00 0.00 86 1011.3
20260905001543 83 241 0.0 0.0 0.00 0.00 0.00 85 1011.2
20260905000107 84 241 0.0 0.0 0.00 0.00 0.00 84 1011.1
20260904234507 85 241 0.0 0.0 0.00 0.00 0.00 82 1011.1
20260904233031 86 241 0.0 0.0 0.00 0.00 0.00 79 1011.1
20260904231546 87 241 0.0 0.0 0.00 0.00 0.00 79 1011.1
20260904230111 87 241 0.0 1.0 0.00 0.00 0.00 77 1011.3
20260904224509 88 241 0.0 0.0 0.00 0.00 0.00 75 1011.5
20260904223043 88 241 0.0 0.0 0.00 0.00 0.00 76 1011.4
20260904221603 89 241 0.0 1.0 0.00 0.00 0.00 74 1011.5
20260904220119 89 222 0.0 0.0 0.00 0.00 0.00 72 1011.5
20260904214520 91 222 0.0 1.0 0.00 0.00 0.00 69 1011.5
20260904213041 90 306 0.0 1.0 0.00 0.00 0.00 72 1011.5
20260904211509 90 207 0.0 3.0 0.00 0.00 0.00 70 1011.3
20260904210002 90 241 0.0 1.0 0.00 0.00 0.00 69 1011.3
20260904204520 91 252 0.0 1.0 0.00 0.00 0.00 68 1011.3
20260904203041 91 236 0.0 4.0 0.00 0.00 0.00 67 1011.7
20260904201606 91 92 0.0 2.0 0.00 0.00 0.00 64 1011.9
20260904201506 91 227 0.0 2.0 0.00 0.00 0.00 64 1011.9
20260904200134 91 235 0.0 3.0 0.00 0.00 0.00 64 1012.2
20260904194552 90 205 0.0 6.0 0.00 0.00 0.00 66 1012.6
20260904193045 90 204 0.0 5.0 0.00 0.00 0.00 62 1012.9
20260904191508 90 230 0.0 6.0 0.00 0.00 0.00 65 1013.1
20260904190009 89 212 0.0 5.0 0.00 0.00 0.00 65 1012.9
20260904184518 88 114 0.0 4.0 0.00 0.00 0.00 66 1013.4
20260904183028 88 226 0.0 7.0 0.00 0.00 0.00 67 1013.5
20260904181553 87 127 1.0 6.0 0.00 0.00 0.00 66 1013.5
20260904180117 86 241 0.0 10.0 0.00 0.00 0.00 69 1013.7
20260904174511 85 98 2.0 11.0 0.00 0.00 0.00 68 1014.1
20260904173034 85 132 0.0 3.0 0.00 0.00 0.00 71 1014.3
20260904171550 83 229 0.0 6.0 0.00 0.00 0.00 73 1014.8
20260904170107 85 307 0.0 2.0 0.00 0.00 0.00 72 1015.1
20260904164508 86 193 0.0 2.0 0.00 0.00 0.00 72 1015.2
20260904163024 85 169 0.0 3.0 0.00 0.00 0.00 74 1014.9
20260904161545 84 54 0.0 1.0 0.00 0.00 0.00 76 1014.9
20260904160103 85 222 0.0 1.0 0.00 0.00 0.00 77 1014.9
20260904154608 85 302 0.0 1.0 0.00 0.00 0.00 76 1014.7
20260904153021 86 4 0.0 1.0 0.00 0.00 0.00 75 1014.5
20260904151536 85 101 0.0 1.0 0.00 0.00 0.00 76 1013.9
20260904150052 86 37 0.0 0.0 0.00 0.00 0.00 77 1014.0
20260904144540 85 72 0.0 0.0 0.00 0.00 0.00 79 1013.8
20260904143054 84 73 0.0 0.0 0.00 0.00 0.00 79 1013.5
20260904141513 83 136 0.0 0.0 0.00 0.00 0.00 82 1013.6
20260904140001 80 136 0.0 0.0 0.00 0.00 0.00 88 1013.6
20260904134521 78 136 0.0 0.0 0.00 0.00 0.00 90 1013.4
20260904133036 76 111 0.0 0.0 0.00 0.00 0.00 93 1013.4
20260904131602 75 112 0.0 0.0 0.00 0.00 0.00 94 1013.4
20260904130104 74 111 0.0 0.0 0.00 0.00 0.00 95 1013.2
20260904124555 73 111 0.0 0.0 0.00 0.00 0.00 95 1012.8
20260904123010 73 111 0.0 0.0 0.00 0.00 0.00 95 1012.4
20260904121535 72 111 0.0 0.0 0.00 0.00 0.00 95 1012.2
20260904120055 72 111 0.0 0.0 0.00 0.00 0.00 95 1012.0